EN

Hourly Weather Orcy

Today, 24 November, Tuesday

Time Temperature Precipitation Wind Pressure Humidity
00:00 +1°C° 0 mm 5 mps 744 mmHg 88%
01:00 +1°C° 0 mm 5 mps 744 mmHg 88%
02:00 +1°C° 0 mm 5 mps 745 mmHg 87%
03:00 +1°C° 0.1 mm 5 mps 745 mmHg 87%
04:00 +1°C° 0.1 mm 6 mps 745 mmHg 88%
05:00 +1°C° 0.1 mm 6 mps 745 mmHg 89%
06:00 +1°C° 0.1 mm 6 mps 745 mmHg 87%
07:00 +1°C° 0.1 mm 6 mps 746 mmHg 85%
08:00 +1°C° 0 mm 5 mps 747 mmHg 82%
09:00 +1°C° 0 mm 5 mps 747 mmHg 79%
10:00 +2°C° 0 mm 5 mps 747 mmHg 76%
11:00 +2°C° 0 mm 5 mps 748 mmHg 74%
12:00 +2°C° 0 mm 5 mps 748 mmHg 73%
13:00 +3°C° 0 mm 4 mps 748 mmHg 72%
14:00 +4°C° 0 mm 4 mps 748 mmHg 70%
15:00 +3°C° 0 mm 4 mps 748 mmHg 75%
16:00 +3°C° 0 mm 3 mps 748 mmHg 80%
17:00 +3°C° 0 mm 3 mps 748 mmHg 86%
18:00 +3°C° 0.3 mm 3 mps 748 mmHg 89%
19:00 +4°C° 0.3 mm 2 mps 748 mmHg 92%
20:00 +4°C° 0.3 mm 2 mps 748 mmHg 95%
21:00 +4°C° 0.2 mm 2 mps 748 mmHg 95%
22:00 +3°C° 0.2 mm 3 mps 748 mmHg 94%
23:00 +3°C° 0.2 mm 3 mps 747 mmHg 94%

Tomorrow, 25 November, Wednesday

Time Temperature Precipitation Wind Pressure Humidity
00:00 +4°C° 0.4 mm 2 mps 747 mmHg 95%
01:00 +4°C° 0.4 mm 2 mps 747 mmHg 96%
02:00 +4°C° 0.4 mm 2 mps 748 mmHg 97%
03:00 +4°C° 0.6 mm 2 mps 747 mmHg 97%
04:00 +5°C° 0.6 mm 2 mps 747 mmHg 97%
05:00 +5°C° 0.6 mm 2 mps 747 mmHg 97%
06:00 +5°C° 0.3 mm 2 mps 747 mmHg 97%
07:00 +6°C° 0.3 mm 2 mps 747 mmHg 97%
08:00 +6°C° 0.3 mm 2 mps 748 mmHg 97%
09:00 +6°C° 0.1 mm 2 mps 748 mmHg 95%
10:00 +7°C° 0.1 mm 2 mps 748 mmHg 94%
11:00 +7°C° 0.1 mm 3 mps 748 mmHg 93%
12:00 +7°C° 0 mm 3 mps 749 mmHg 92%
13:00 +7°C° 0 mm 2 mps 749 mmHg 91%
14:00 +8°C° 0 mm 2 mps 749 mmHg 90%
15:00 +7°C° 0 mm 2 mps 749 mmHg 91%
16:00 +7°C° 0 mm 2 mps 749 mmHg 93%
17:00 +6°C° 0 mm 2 mps 749 mmHg 94%
18:00 +7°C° 0.1 mm 2 mps 750 mmHg 95%
19:00 +7°C° 0.1 mm 3 mps 750 mmHg 95%
20:00 +7°C° 0.1 mm 3 mps 750 mmHg 96%
21:00 +7°C° 0 mm 3 mps 750 mmHg 95%
22:00 +7°C° 0 mm 3 mps 750 mmHg 95%
23:00 +6°C° 0 mm 4 mps 750 mmHg 94%

Day after tomorrow, 26 November, Thursday

Time Temperature Precipitation Wind Pressure Humidity
00:00 +6°C° 0 mm 4 mps 750 mmHg 93%
01:00 +6°C° 0 mm 4 mps 750 mmHg 92%
02:00 +6°C° 0 mm 4 mps 750 mmHg 91%
03:00 +6°C° 0 mm 4 mps 749 mmHg 90%
04:00 +5°C° 0 mm 4 mps 749 mmHg 90%
05:00 +5°C° 0 mm 4 mps 749 mmHg 89%
06:00 +4°C° 0 mm 4 mps 749 mmHg 88%
07:00 +4°C° 0 mm 4 mps 749 mmHg 86%
08:00 +3°C° 0 mm 4 mps 749 mmHg 84%
09:00 +3°C° 0 mm 4 mps 748 mmHg 81%
10:00 +1°C° 0 mm 4 mps 748 mmHg 79%
11:00 +1°C° 0 mm 4 mps 748 mmHg 76%
12:00 +1°C° 0 mm 4 mps 748 mmHg 75%
13:00 +1°C° 0 mm 4 mps 747 mmHg 74%
14:00 +1°C° 0 mm 4 mps 747 mmHg 73%
15:00 +1°C° 0 mm 4 mps 747 mmHg 75%
16:00 0°C° 0 mm 4 mps 746 mmHg 77%
17:00 0°C° 0 mm 4 mps 746 mmHg 79%
18:00 0°C° 0 mm 4 mps 746 mmHg 81%
19:00 0°C° 0 mm 4 mps 746 mmHg 83%
20:00 0°C° 0 mm 4 mps 745 mmHg 85%
21:00 0°C° 0 mm 4 mps 745 mmHg 86%
22:00 0°C° 0 mm 4 mps 745 mmHg 87%
23:00 0°C° 0 mm 4 mps 745 mmHg 88%

27 November, Friday

Time Temperature Precipitation Wind Pressure Humidity
00:00 0°C° 0.1 mm 4 mps 744 mmHg 89%
01:00 +1°C° 0.1 mm 4 mps 744 mmHg 90%
02:00 +1°C° 0.1 mm 4 mps 744 mmHg 91%
03:00 +1°C° 0.7 mm 4 mps 744 mmHg 93%
04:00 +1°C° 0.7 mm 4 mps 744 mmHg 94%
05:00 +3°C° 0.7 mm 4 mps 743 mmHg 95%
06:00 +3°C° 0.3 mm 3 mps 744 mmHg 95%
07:00 +2°C° 0.3 mm 3 mps 744 mmHg 94%
08:00 +2°C° 0.3 mm 3 mps 744 mmHg 94%
09:00 +3°C° 0 mm 3 mps 744 mmHg 91%
10:00 +3°C° 0 mm 3 mps 744 mmHg 89%
11:00 +3°C° 0 mm 4 mps 745 mmHg 86%
12:00 +3°C° 0 mm 4 mps 745 mmHg 82%
13:00 +3°C° 0 mm 4 mps 745 mmHg 78%
14:00 +3°C° 0 mm 4 mps 745 mmHg 75%
15:00 +3°C° 0.1 mm 4 mps 745 mmHg 80%
16:00 +1°C° 0.1 mm 4 mps 746 mmHg 84%
17:00 0°C° 0.1 mm 4 mps 746 mmHg 89%
18:00 +1°C° 0.1 mm 3 mps 746 mmHg 88%
19:00 0°C° 0.1 mm 3 mps 747 mmHg 87%
20:00 0°C° 0.1 mm 3 mps 747 mmHg 86%
21:00 -1°C° 0 mm 3 mps 747 mmHg 88%
22:00 -1°C° 0 mm 3 mps 748 mmHg 90%
23:00 -1°C° 0 mm 3 mps 748 mmHg 92%

28 November, Saturday

Time Temperature Precipitation Wind Pressure Humidity
00:00 -1°C° 0 mm 3 mps 749 mmHg 91%
01:00 -1°C° 0 mm 3 mps 749 mmHg 91%
02:00 -1°C° 0 mm 3 mps 750 mmHg 90%
03:00 -1°C° 0 mm 3 mps 750 mmHg 90%
04:00 -1°C° 0 mm 3 mps 750 mmHg 89%
05:00 -1°C° 0 mm 3 mps 751 mmHg 89%
06:00 -1°C° 0 mm 3 mps 751 mmHg 88%
07:00 -1°C° 0 mm 3 mps 752 mmHg 88%
08:00 -1°C° 0 mm 3 mps 752 mmHg 88%
09:00 -1°C° 0 mm 3 mps 753 mmHg 87%
10:00 -1°C° 0 mm 3 mps 753 mmHg 86%
11:00 0°C° 0 mm 3 mps 754 mmHg 85%
12:00 0°C° 0 mm 3 mps 754 mmHg 84%
13:00 0°C° 0 mm 3 mps 754 mmHg 83%
14:00 0°C° 0 mm 3 mps 754 mmHg 83%
15:00 0°C° 0 mm 3 mps 754 mmHg 85%
16:00 0°C° 0 mm 3 mps 755 mmHg 86%
17:00 -1°C° 0 mm 2 mps 755 mmHg 88%
18:00 -1°C° 0 mm 2 mps 755 mmHg 88%
19:00 -1°C° 0 mm 2 mps 756 mmHg 88%
20:00 -1°C° 0 mm 2 mps 756 mmHg 89%
21:00 -1°C° 0 mm 2 mps 756 mmHg 89%
22:00 -2°C° 0 mm 2 mps 757 mmHg 89%
23:00 -2°C° 0 mm 2 mps 757 mmHg 89%

29 November, Sunday

Time Temperature Precipitation Wind Pressure Humidity
00:00 -2°C° 0 mm 2 mps 757 mmHg 89%
01:00 -2°C° 0 mm 2 mps 757 mmHg 89%
02:00 -2°C° 0 mm 2 mps 757 mmHg 90%
03:00 -2°C° 0 mm 2 mps 757 mmHg 89%
04:00 -3°C° 0 mm 2 mps 757 mmHg 88%
05:00 -4°C° 0 mm 3 mps 758 mmHg 88%
06:00 -4°C° 0 mm 3 mps 758 mmHg 88%
07:00 -4°C° 0 mm 3 mps 758 mmHg 88%
08:00 -4°C° 0 mm 3 mps 758 mmHg 88%
09:00 -4°C° 0 mm 3 mps 758 mmHg 86%
10:00 -2°C° 0 mm 3 mps 758 mmHg 83%
11:00 -2°C° 0 mm 3 mps 758 mmHg 81%
12:00 -1°C° 0 mm 3 mps 758 mmHg 79%
13:00 -1°C° 0 mm 3 mps 758 mmHg 78%
14:00 -1°C° 0 mm 3 mps 758 mmHg 76%
15:00 -1°C° 0 mm 3 mps 758 mmHg 77%
16:00 -2°C° 0 mm 4 mps 758 mmHg 78%
17:00 -3°C° 0 mm 4 mps 758 mmHg 79%
18:00 -3°C° 0 mm 4 mps 758 mmHg 79%
19:00 -3°C° 0 mm 4 mps 758 mmHg 79%
20:00 -3°C° 0 mm 4 mps 758 mmHg 79%
21:00 -3°C° 0 mm 4 mps 758 mmHg 77%
22:00 -3°C° 0 mm 4 mps 758 mmHg 76%
23:00 -3°C° 0 mm 4 mps 758 mmHg 74%
Show more

We Need Your Consent

Meteoprog and our Service Providers may store and access personal data such as cookies, device identifiers or other similar technologies on your device and process such data to personalise content and ads, as well as provide social media features and to analyse the traffic.

  • Store and/or access information on your device

    Cookies, device identifiers or other information can be stored or accessed on your device for the purposes indicated above.

  • Personalised ads and content, ad and content measurement, audience insights, and products development

    Ads and content can be personalised based on a profile. More data can be added to better personalise ads and content. Ad and content performance can be measured. Insights about the audience who saw the ads and content can be derived. Such data can be used to develop or improve user’s experience, systems and software.

By clicking ‘I Agree’ you will allow the use of indicated cookies, device identifiers, web beacons or other similar technologies. Your settings can be changed in the browser on your device.

For certain purposes, legitimate interests may be relied on, rather than consent. You can read more about this in our Privacy and Cookie Policy.